FW7413 Weather Reports


time (UTC)temp
F
wind
direction
speed
knots
gust
knots
rain 1hr
in
rain 24hr
in
rain mn
in
humidity
%
barometer
mb
20260507142956 60 187 0.9 1.7 0.00 0.00 0.00 46 1020.9
20260507142451 60 164 0.9 1.7 0.00 0.00 0.00 47 1020.9
20260507141948 60 182 1.7 2.6 0.00 0.00 0.00 48 1020.8
20260507141444 60 163 0.0 0.9 0.00 0.00 0.00 50 1021.0
20260507140942 60 119 0.0 0.0 0.00 0.00 0.00 52 1020.9
20260507140438 59 181 1.7 2.6 0.00 0.00 0.00 51 1021.0
20260507135936 59 171 0.9 0.9 0.00 0.00 0.00 53 1021.1
20260507135432 59 175 0.0 0.9 0.00 0.00 0.00 53 1021.1
20260507134930 59 182 0.9 0.9 0.00 0.00 0.00 55 1021.2
20260507134426 58 211 0.0 0.9 0.00 0.00 0.00 56 1021.1
20260507133922 57 167 0.0 0.0 0.00 0.00 0.00 57 1021.3
20260507133418 56 186 0.0 0.0 0.00 0.00 0.00 58 1021.2
20260507132917 56 157 0.0 0.0 0.00 0.00 0.00 60 1021.2
20260507132413 55 174 0.0 0.9 0.00 0.00 0.00 61 1021.3
20260507131910 54 227 0.0 0.9 0.00 0.00 0.00 61 1021.1
20260507131407 54 161 0.0 0.9 0.00 0.00 0.00 62 1021.2
20260507130904 53 171 0.0 0.9 0.00 0.00 0.00 64 1021.1
20260507130400 52 190 0.9 1.7 0.00 0.00 0.00 64 1021.1
20260507125859 51 195 1.7 2.6 0.00 0.00 0.00 65 1021.0
20260507125356 50 185 0.0 0.9 0.00 0.00 0.00 67 1021.0
20260507124854 50 190 0.0 0.0 0.00 0.00 0.00 68 1020.8
20260507124350 49 202 0.0 0.0 0.00 0.00 0.00 69 1020.7
20260507123849 48 206 0.0 0.9 0.00 0.00 0.00 70 1020.8
20260507123345 48 208 0.9 0.9 0.00 0.00 0.00 70 1020.7
20260507122842 48 219 0.0 0.9 0.00 0.00 0.00 70 1020.8
20260507122337 48 190 0.0 0.9 0.00 0.00 0.00 70 1020.7
20260507121834 48 172 0.0 0.9 0.00 0.00 0.00 71 1020.6
20260507121329 48 172 0.0 0.9 0.00 0.00 0.00 71 1020.6
20260507120826 47 168 0.0 0.0 0.00 0.00 0.00 71 1020.5
20260507120322 47 168 0.0 0.0 0.00 0.00 0.00 71 1020.5
20260507115819 47 167 0.0 0.0 0.00 0.00 0.00 71 1020.4
20260507115314 47 167 0.0 0.0 0.00 0.00 0.00 71 1020.4
20260507114810 46 166 0.9 1.7 0.00 0.00 0.00 72 1020.3
20260507114308 46 165 0.0 0.0 0.00 0.00 0.00 72 1020.2
20260507113805 46 164 0.0 0.0 0.00 0.00 0.00 72 1020.5
20260507113302 46 163 0.0 0.0 0.00 0.00 0.00 72 1020.2
20260507112800 46 162 0.0 0.9 0.00 0.00 0.00 72 1020.5
20260507112256 46 162 0.0 0.0 0.00 0.00 0.00 72 1020.4
20260507111754 46 162 0.0 0.0 0.00 0.00 0.00 72 1020.1
20260507111250 46 162 0.0 0.0 0.00 0.00 0.00 73 1020.2
20260507110746 46 162 0.0 0.0 0.00 0.00 0.00 72 1020.2
20260507110243 46 162 0.0 0.0 0.00 0.00 0.00 72 1020.3
20260507105740 46 161 0.0 0.0 0.00 0.00 0.00 73 1020.1
20260507105236 46 160 0.0 0.9 0.00 0.00 0.00 73 1020.2
20260507104734 46 159 0.0 0.0 0.00 0.00 0.00 73 1020.2
20260507104230 46 159 0.0 0.0 0.00 0.00 0.00 73 1020.3
20260507103726 46 158 0.0 0.0 0.00 0.00 0.00 73 1020.3
20260507103223 46 156 0.0 0.0 0.00 0.00 0.00 73 1020.2
20260507102719 46 155 0.0 0.0 0.00 0.00 0.00 73 1020.2
20260507102215 46 155 0.0 0.0 0.00 0.00 0.00 73 1020.1
20260507101712 46 155 0.0 0.0 0.00 0.00 0.00 73 1020.1
20260507101207 46 155 0.0 0.9 0.00 0.00 0.00 73 1020.3
20260507100705 46 155 0.0 0.0 0.00 0.00 0.00 73 1020.1
20260507100203 46 155 0.0 0.0 0.00 0.00 0.00 73 1019.9
20260507095701 45 155 0.0 0.0 0.00 0.00 0.00 73 1019.9
20260507095157 45 155 0.0 0.0 0.00 0.00 0.00 73 1019.8
20260507094653 46 155 0.0 0.0 0.00 0.00 0.00 73 1019.8
20260507094150 46 155 0.0 0.0 0.00 0.00 0.00 73 1019.9
20260507093648 46 155 0.0 0.0 0.00 0.00 0.00 73 1019.8
20260507093146 45 155 0.0 0.0 0.00 0.00 0.00 73 1020.3
20260507092643 45 155 0.0 0.0 0.00 0.00 0.00 72 1019.9
20260507092139 45 155 0.0 0.0 0.00 0.00 0.00 72 1020.1
20260507091636 45 155 0.0 0.0 0.00 0.00 0.00 72 1020.1
20260507091132 45 155 0.0 0.9 0.00 0.00 0.00 72 1020.1
20260507090628 45 155 0.0 0.0 0.00 0.00 0.00 72 1019.8
20260507090125 45 155 0.0 0.0 0.00 0.00 0.00 72 1020.1
20260507085622 45 155 0.0 0.0 0.00 0.00 0.00 72 1019.7
20260507085119 45 155 0.0 0.0 0.00 0.00 0.00 72 1019.9
20260507084615 46 155 0.0 0.0 0.00 0.00 0.00 71 1019.5
20260507084112 46 155 0.0 0.0 0.00 0.00 0.00 71 1019.8
20260507083609 46 155 0.0 0.0 0.00 0.00 0.00 71 1019.9
20260507083106 46 155 0.0 0.0 0.00 0.00 0.00 71 1019.7
20260507082602 46 155 0.0 0.0 0.00 0.00 0.00 71 1019.8
20260507082058 46 154 0.0 0.0 0.00 0.00 0.00 71 1019.8
20260507081554 47 154 0.0 0.0 0.00 0.00 0.00 71 1019.6
20260507081052 46 154 0.0 0.0 0.00 0.00 0.00 71 1020.1
20260507080547 46 154 0.0 0.0 0.00 0.00 0.00 71 1020.1
20260507080044 46 154 0.0 0.0 0.00 0.00 0.00 72 1019.8
20260507075539 46 154 0.0 0.0 0.00 0.00 0.00 71 1019.7
20260507075036 46 154 0.0 0.0 0.00 0.00 0.00 71 1019.8
20260507074533 46 154 0.0 0.0 0.00 0.00 0.00 70 1019.8
20260507074031 46 154 0.0 0.0 0.00 0.00 0.00 70 1019.6
20260507073527 47 154 0.0 0.0 0.00 0.00 0.00 70 1019.9
20260507073024 47 154 0.0 0.0 0.00 0.00 0.00 70 1020.4
20260507072521 47 154 0.0 0.0 0.00 0.00 0.00 69 1020.3
20260507072018 47 154 0.0 0.0 0.00 0.00 0.00 70 1020.4
20260507071516 47 153 0.0 0.0 0.00 0.00 0.00 70 1020.2
20260507071012 47 153 0.0 0.0 0.00 0.00 0.00 70 1020.1
20260507070509 47 152 0.0 0.0 0.00 0.00 0.00 70 1020.2
20260507070010 47 152 0.0 0.0 0.00 0.00 0.00 70 1020.1
20260507065502 47 152 0.0 0.0 0.00 0.00 0.00 69 1019.9
20260507065000 47 152 0.0 0.0 0.00 0.00 0.00 68 1019.7
20260507064458 47 152 0.0 0.0 0.00 0.00 0.00 68 1019.8
20260507063956 47 152 0.0 0.0 0.00 0.00 0.00 68 1020.1
20260507063452 48 152 0.0 0.0 0.00 0.00 0.00 68 1019.9
20260507062949 48 152 0.0 0.0 0.00 0.00 0.00 68 1020.1
20260507062447 48 152 0.0 0.0 0.00 0.00 0.00 68 1020.3
20260507061944 48 152 0.0 0.0 0.00 0.00 0.00 68 1019.9
20260507061442 47 152 0.0 0.0 0.00 0.00 0.00 68 1020.2
20260507060940 48 152 0.0 0.0 0.00 0.00 0.00 67 1020.3
20260507060436 48 152 0.0 0.0 0.00 0.00 0.00 65 1020.7
20260507055933 48 152 0.0 0.0 0.00 0.00 0.00 65 1020.5
20260507055428 48 152 0.0 0.0 0.00 0.00 0.00 65 1020.7
20260507054920 49 152 0.0 0.0 0.00 0.00 0.00 64 1020.7
20260507054416 49 152 0.0 0.0 0.00 0.00 0.00 64 1020.6
20260507053913 50 152 0.0 0.0 0.00 0.00 0.00 64 1020.6
20260507053410 50 152 0.0 0.0 0.00 0.00 0.00 63 1020.6
20260507052909 50 152 0.0 0.0 0.00 0.00 0.00 63 1020.7
20260507052406 50 151 0.0 0.0 0.00 0.00 0.00 63 1020.4
20260507051903 50 148 0.0 0.0 0.00 0.00 0.00 64 1020.3
20260507051401 50 148 0.0 0.0 0.00 0.00 0.00 64 1020.6
20260507050857 50 147 0.0 0.0 0.00 0.00 0.00 64 1020.3
20260507050354 50 147 0.0 0.0 0.00 0.00 0.00 63 1020.4
20260507045851 50 147 0.0 0.0 0.00 0.00 0.00 64 1020.5
20260507045347 50 147 0.0 0.0 0.00 0.00 0.00 63 1020.4
20260507044845 51 147 0.0 0.0 0.00 0.00 0.00 63 1020.5
20260507044341 51 146 0.0 0.0 0.00 0.00 0.00 61 1020.4
20260507043837 51 146 0.0 0.0 0.00 0.00 0.00 61 1020.1
20260507043334 52 145 0.0 0.0 0.00 0.00 0.00 60 1020.4
20260507042830 52 145 0.0 0.0 0.00 0.00 0.00 60 1020.1
20260507042326 52 144 0.0 0.0 0.00 0.00 0.00 59 1020.1
20260507041823 53 139 0.0 0.0 0.00 0.00 0.00 58 1019.8
20260507041319 53 132 0.9 0.9 0.00 0.00 0.00 57 1019.6
20260507040817 53 134 0.0 0.0 0.00 0.00 0.00 57 1018.9
20260507040312 53 98 0.9 1.7 0.00 0.00 0.00 57 1019.1
20260507035808 53 128 0.0 0.0 0.00 0.00 0.00 58 1019.2
20260507035306 53 134 0.0 0.9 0.00 0.00 0.00 58 1018.9
20260507034802 53 137 0.0 0.0 0.00 0.00 0.00 59 1018.9
20260507034259 52 134 0.0 0.0 0.00 0.00 0.00 59 1019.2
20260507033757 52 138 0.0 0.0 0.00 0.00 0.00 59 1019.3
20260507033254 52 140 0.0 0.0 0.00 0.00 0.00 59 1019.3
20260507032751 52 140 0.0 0.0 0.00 0.00 0.00 58 1019.5
20260507032247 52 140 0.0 0.0 0.00 0.00 0.00 58 1019.3
20260507031744 52 140 0.0 0.0 0.00 0.00 0.00 57 1019.2
20260507031241 53 140 0.0 0.0 0.00 0.00 0.00 57 1019.2
20260507030737 53 140 0.0 0.0 0.00 0.00 0.00 57 1019.0
20260507030235 53 139 0.0 0.0 0.00 0.00 0.00 56 1019.1
20260507025732 53 138 0.0 0.0 0.00 0.00 0.00 55 1018.8
20260507025229 54 134 0.0 0.0 0.00 0.00 0.00 55 1018.8
20260507024727 54 133 0.0 0.0 0.00 0.00 0.00 54 1018.8
20260507024224 55 128 0.0 0.0 0.00 0.00 0.00 53 1018.5
20260507023720 55 112 0.0 0.9 0.00 0.00 0.00 53 1018.6
20260507023217 55 125 0.0 0.0 0.00 0.00 0.00 52 1018.6
20260507022714 56 96 0.0 0.0 0.00 0.00 0.00 52 1018.7
20260507022210 56 104 0.0 0.0 0.00 0.00 0.00 51 1018.4
20260507021706 56 130 0.0 0.9 0.00 0.00 0.00 51 1018.4
20260507021201 57 128 0.9 0.9 0.00 0.00 0.00 50 1018.4
20260507020701 57 103 0.9 0.9 0.00 0.00 0.00 50 1018.3
20260507020156 57 110 0.0 0.0 0.00 0.00 0.00 49 1018.4
20260507015654 57 122 0.0 0.0 0.00 0.00 0.00 49 1018.1
20260507015151 58 50 0.9 0.9 0.00 0.00 0.00 48 1018.3
20260507014648 58 96 0.0 0.9 0.00 0.00 0.00 48 1018.0
20260507014144 59 76 2.6 2.6 0.00 0.00 0.00 47 1018.0
20260507013641 59 80 0.0 0.9 0.00 0.00 0.00 47 1017.9
20260507013138 59 107 0.0 0.9 0.00 0.00 0.00 46 1018.0
20260507012636 59 87 0.9 1.7 0.00 0.00 0.00 46 1017.6
20260507012130 60 58 1.7 2.6 0.00 0.00 0.00 45 1017.8
20260507011629 60 81 0.9 0.9 0.00 0.00 0.00 45 1017.4
20260507011125 60 34 2.6 4.3 0.00 0.00 0.00 44 1017.5
20260507010620 61 40 1.7 1.7 0.00 0.00 0.00 44 1017.6
20260507010116 61 8 4.3 5.2 0.00 0.00 0.00 44 1017.4
20260507005614 61 88 0.0 0.9 0.00 0.00 0.00 44 1017.4
20260507005110 61 90 1.7 1.7 0.00 0.00 0.00 43 1017.7
20260507004607 62 83 1.7 2.6 0.00 0.00 0.00 44 1017.6
20260507004104 62 98 0.9 0.9 0.00 0.00 0.00 44 1017.5
20260507003600 62 31 3.5 5.2 0.00 0.00 0.00 44 1017.4
20260507003055 62 115 1.7 2.6 0.00 0.00 0.00 44 1017.3
20260507002552 63 44 3.5 5.2 0.00 0.00 0.00 43 1017.5
20260507002048 63 107 1.7 1.7 0.00 0.00 0.00 43 1017.5
20260507001545 63 320 3.5 6.1 0.00 0.00 0.00 43 1017.4
20260507001042 63 331 3.5 5.2 0.00 0.00 0.00 43 1017.4
20260507000538 64 88 4.3 5.2 0.00 0.00 0.00 42 1017.3
20260507000034 65 66 2.6 2.6 0.00 0.00 0.00 41 1017.0
20260506235532 65 120 1.7 1.7 0.00 0.00 0.00 41 1017.3
20260506235027 64 63 2.6 5.2 0.00 0.00 0.00 41 1016.9
20260506234525 64 79 3.5 5.2 0.00 0.00 0.00 41 1016.9
20260506234022 65 38 4.3 5.2 0.00 0.00 0.00 41 1016.8
20260506233518 65 17 4.3 5.2 0.00 0.00 0.00 41 1016.9
20260506233015 65 65 2.6 4.3 0.00 0.00 0.00 40 1016.8
20260506232511 65 19 3.5 5.2 0.00 0.00 0.00 41 1016.7
20260506232007 64 55 3.5 4.3 0.00 0.00 0.00 41 1016.7
20260506231504 66 72 0.9 0.9 0.00 0.00 0.00 40 1016.7
20260506230956 65 45 3.5 4.3 0.00 0.00 0.00 41 1016.6
20260506230452 66 49 1.7 2.6 0.00 0.00 0.00 40 1016.5
20260506225949 65 89 2.6 4.3 0.00 0.00 0.00 41 1016.6
20260506225446 66 62 2.6 2.6 0.00 0.00 0.00 40 1016.5
20260506224943 66 260 5.2 7.0 0.00 0.00 0.00 41 1016.5
20260506224440 66 104 3.5 4.3 0.00 0.00 0.00 40 1016.3
20260506223936 66 51 4.3 5.2 0.00 0.00 0.00 40 1016.6
20260506223432 66 127 2.6 4.3 0.00 0.00 0.00 41 1016.2
20260506222930 66 100 4.3 5.2 0.00 0.00 0.00 40 1016.3
20260506222426 65 51 3.5 5.2 0.00 0.00 0.00 42 1016.1
20260506221923 66 104 0.9 1.7 0.00 0.00 0.00 42 1016.2
20260506221420 65 285 2.6 2.6 0.00 0.00 0.00 42 1016.0
20260506220918 65 65 1.7 1.7 0.00 0.00 0.00 40 1015.9
20260506220413 65 40 5.2 6.1 0.00 0.00 0.00 40 1015.9
20260506215909 66 128 1.7 2.6 0.00 0.00 0.00 41 1016.1
20260506215406 65 56 1.7 2.6 0.00 0.00 0.00 41 1016.1
20260506214856 65 65 1.7 4.3 0.00 0.00 0.00 41 1016.0
20260506214353 66 77 1.7 2.6 0.00 0.00 0.00 42 1016.2
20260506213851 66 20 3.5 5.2 0.00 0.00 0.00 41 1016.2
20260506213348 66 130 1.7 1.7 0.00 0.00 0.00 41 1016.0
20260506212846 66 89 0.9 0.9 0.00 0.00 0.00 41 1016.1
20260506212341 64 63 2.6 2.6 0.00 0.00 0.00 44 1016.4
20260506211836 64 31 4.3 7.0 0.00 0.00 0.00 43 1016.4
20260506211332 64 100 1.7 2.6 0.00 0.00 0.00 44 1016.4
20260506210830 65 67 3.5 5.2 0.00 0.00 0.00 44 1016.4
20260506210327 65 72 2.6 2.6 0.00 0.00 0.00 44 1016.8
20260506205824 65 52 4.3 6.1 0.00 0.00 0.00 45 1016.7
20260506205320 64 302 4.3 7.0 0.00 0.00 0.00 46 1016.6
20260506204817 63 57 5.2 7.0 0.00 0.00 0.00 45 1016.6
20260506204314 63 54 0.9 1.7 0.00 0.00 0.00 45 1017.0
20260506203812 65 41 4.3 5.2 0.00 0.00 0.00 44 1016.7
20260506203309 65 46 3.5 5.2 0.00 0.00 0.00 44 1016.8
20260506202806 65 84 3.5 4.3 0.00 0.00 0.00 45 1016.8
20260506202305 64 88 2.6 2.6 0.00 0.00 0.00 47 1017.0
20260506201753 64 61 2.6 4.3 0.00 0.00 0.00 45 1016.9
20260506201250 63 59 0.9 1.7 0.00 0.00 0.00 47 1017.2
20260506200747 63 55 0.9 1.7 0.00 0.00 0.00 46 1017.0
20260506200243 64 56 2.6 4.3 0.00 0.00 0.00 47 1017.3
20260506195740 63 3 5.2 6.1 0.00 0.00 0.00 46 1017.0
20260506195236 63 20 4.3 6.1 0.00 0.00 0.00 47 1017.0
20260506194734 63 71 0.0 1.7 0.00 0.00 0.00 49 1017.3
20260506194230 62 55 6.1 7.0 0.00 0.00 0.00 48 1017.2
20260506193728 62 71 1.7 1.7 0.00 0.00 0.00 49 1017.5
20260506193224 61 85 0.0 0.9 0.00 0.00 0.00 49 1017.2
20260506192721 61 33 4.3 5.2 0.00 0.00 0.00 50 1017.4
20260506192218 61 73 1.7 2.6 0.00 0.00 0.00 51 1017.7
20260506191715 61 348 3.5 4.3 0.00 0.00 0.00 49 1017.7
20260506191210 61 44 1.7 2.6 0.00 0.00 0.00 50 1017.5
20260506190708 61 42 1.7 2.6 0.00 0.00 0.00 49 1017.7
20260506190204 60 65 1.7 1.7 0.00 0.00 0.00 49 1017.6
20260506185702 60 77 1.7 2.6 0.00 0.00 0.00 49 1017.6
20260506185158 61 20 3.5 4.3 0.00 0.00 0.00 48 1017.8
20260506184656 61 118 1.7 5.2 0.00 0.00 0.00 48 1017.8
20260506184153 61 151 0.9 1.7 0.00 0.00 0.00 50 1017.6
20260506183650 62 63 2.6 4.3 0.00 0.00 0.00 48 1017.7
20260506183145 61 90 0.9 2.6 0.00 0.00 0.00 48 1017.9
20260506182643 61 65 4.3 6.1 0.00 0.00 0.00 48 1017.9
20260506182140 61 93 1.7 2.6 0.00 0.00 0.00 49 1017.7
20260506181638 61 28 2.6 2.6 0.00 0.00 0.00 50 1018.1
20260506181134 61 70 1.7 1.7 0.00 0.00 0.00 49 1018.0
20260506180631 60 306 2.6 5.2 0.00 0.00 0.00 50 1018.2
20260506180128 60 133 0.9 2.6 0.00 0.00 0.00 50 1018.3
20260506175624 60 122 1.7 4.3 0.00 0.00 0.00 50 1018.3
20260506175120 61 25 4.3 6.1 0.00 0.00 0.00 48 1018.1
20260506174619 61 156 0.9 0.9 0.00 0.00 0.00 51 1018.0
20260506174115 62 138 0.9 1.7 0.00 0.00 0.00 49 1018.2
20260506173613 60 155 0.0 0.9 0.00 0.00 0.00 52 1018.3
20260506173109 60 59 1.7 1.7 0.00 0.00 0.00 49 1018.0
20260506172608 59 71 1.7 1.7 0.00 0.00 0.00 53 1018.5
20260506172103 59 98 3.5 4.3 0.00 0.00 0.00 51 1018.6
20260506171601 58 63 2.6 2.6 0.00 0.00 0.00 51 1018.3
20260506171058 59 80 2.6 4.3 0.00 0.00 0.00 50 1018.4
20260506170556 58 77 1.7 2.6 0.00 0.00 0.00 52 1018.3
20260506170053 59 33 2.6 5.2 0.00 0.00 0.00 50 1018.4
20260506165552 58 42 4.3 8.7 0.00 0.00 0.00 51 1018.4
20260506165047 59 4 6.1 9.6 0.00 0.00 0.00 50 1018.3
20260506164545 59 5 6.1 7.8 0.00 0.00 0.00 49 1018.3
20260506164042 60 144 4.3 7.0 0.00 0.00 0.00 47 1018.6
20260506163537 60 14 1.7 5.2 0.00 0.00 0.00 49 1018.4
20260506163033 59 128 1.7 2.6 0.00 0.00 0.00 50 1018.3
20260506162530 59 109 2.6 6.1 0.00 0.00 0.00 50 1018.6
20260506162027 59 102 4.3 7.8 0.00 0.00 0.00 50 1018.5
20260506161525 59 128 0.9 2.6 0.00 0.00 0.00 50 1018.7
20260506161021 59 157 3.5 6.1 0.00 0.00 0.00 50 1018.5
20260506160519 57 43 0.9 1.7 0.00 0.00 0.00 54 1018.3
20260506160017 57 18 3.5 6.1 0.00 0.00 0.00 53 1018.4
20260506155515 56 0 2.6 5.2 0.00 0.00 0.00 53 1018.4
20260506153652 55 38 4.3 6.1 0.00 0.00 0.00 56 1017.9
20260506153149 54 120 4.3 7.0 0.00 0.00 0.00 56 1018.1
20260506152646 54 117 7.0 8.7 0.00 0.00 0.00 55 1018.1
20260506152143 54 29 3.5 4.3 0.00 0.00 0.00 57 1018.1
20260506151642 54 10 4.3 5.2 0.00 0.00 0.00 57 1018.1
20260506151138 54 58 2.6 4.3 0.00 0.00 0.00 59 1018.3
20260506150635 53 87 3.5 4.3 0.00 0.00 0.00 61 1018.2
20260506150132 53 1 6.1 7.8 0.00 0.00 0.00 61 1018.2
20260506145629 53 51 4.3 7.0 0.00 0.00 0.00 61 1018.0
20260506145126 52 109 1.7 1.7 0.00 0.00 0.00 64 1018.2
20260506144623 52 16 7.0 11.3 0.00 0.00 0.00 63 1018.2
20260506144120 52 53 0.9 1.7 0.00 0.00 0.00 65 1018.2
20260506143618 51 21 6.1 7.8 0.00 0.00 0.00 66 1017.7
20260506143115 51 65 2.6 4.3 0.00 0.00 0.00 67 1017.6